GFSNIL_sfc_30mbdewp_162.txt.gz
Dewpoint
38 38 38 37 35 33 31 31 32 31 30 29 28 29 29 29 29 30 30 29 29 28
37 37 35 35 32 30 30 29 31 30 27 26 26 25 27 27 27 28 25 28 26 26
36 36 35 33 30 28 26 28 29 26 24 24 23 23 23 25 23 24 23 24 25 24
35 34 32 31 29 28 28 28 26 23 22 21 21 22 21 20 21 22 23 23 23 22
34 32 30 29 28 28 26 26 24 22 20 20 21 21 21 20 20 21 21 22 22 21
35 34 31 31 29 30 26 23 22 21 20 20 20 20 19 19 19 20 21 22 21 19
35 35 35 34 29 27 26 23 22 21 20 20 19 17 16 18 19 19 20 22 21 19
36 36 33 30 26 26 26 24 23 22 22 21 18 21 23 20 18 19 20 20 20 19
35 33 31 31 31 27 25 24 24 22 22 17 16 21 24 23 20 21 21 20 20 20
32 32 32 31 27 25 26 28 27 28 25 21 20 20 23 24 23 22 21 20 21 20
32 31 31 31 30 29 28 27 26 26 25 22 19 17 21 22 21 21 21 18 19 18
30 30 30 29 28 28 27 26 25 26 25 22 19 16 18 21 21 20 19 15 14 15
29 29 28 28 28 27 26 25 26 25 26 22 17 15 16 21 22 20 19 18 14 12
29 28 28 28 28 26 26 25 25 24 25 22 18 15 15 18 22 20 20 20 17 12

GFSNIL_sfc_30mbdewp_165.txt.gz
Dewpoint
39 39 39 39 35 34 33 32 32 30 30 30 30 30 30 30 30 29 31 27 26 28
38 37 36 34 33 32 32 31 32 30 28 27 26 28 27 26 28 24 27 26 24 25
36 35 33 30 30 29 30 31 30 26 26 26 24 25 26 23 26 24 25 25 23 23
34 33 31 30 27 27 29 30 26 25 24 23 23 22 22 22 24 24 24 23 22 22
33 32 30 29 31 31 29 28 25 24 22 23 23 22 21 21 22 22 23 22 20 20
33 32 31 32 33 34 32 29 25 23 23 23 22 20 21 22 21 22 22 20 19 18
35 35 35 36 35 34 33 28 23 24 23 23 23 23 21 21 21 22 22 20 19 17
37 37 36 35 35 35 31 30 28 27 24 22 22 23 22 21 21 22 22 20 19 20
37 36 34 34 34 33 33 33 28 25 20 20 21 25 25 22 22 21 22 21 19 18
35 34 32 32 32 32 31 30 27 23 21 20 23 26 24 23 22 20 19 20 21 18
33 32 32 31 31 31 30 29 26 23 21 19 21 24 23 22 20 17 16 17 14 12
32 31 31 30 30 29 28 27 26 24 21 18 17 22 23 20 18 14 12 13 11 11
32 31 30 29 28 28 27 26 26 24 21 19 17 19 22 23 18 15 13 12 12 13
31 30 29 29 28 27 26 26 24 25 22 18 16 15 20 23 18 18 16 12 10 11

GFSNIL_sfc_30mbdewp_168.txt.gz
Dewpoint
39 39 38 37 37 35 34 34 33 31 30 31 32 31 31 31 30 30 27 26 27 27
39 39 39 38 36 35 34 32 31 30 29 29 30 30 29 29 26 28 27 26 25 24
37 36 35 35 34 33 32 32 30 28 27 27 27 28 26 27 26 27 26 24 24 24
34 32 32 32 31 31 32 31 27 27 26 25 26 26 24 27 26 25 24 23 23 22
33 31 29 29 31 31 30 28 27 28 29 27 25 23 24 24 26 24 21 20 20 19
33 31 31 31 32 34 33 32 31 31 30 27 24 23 24 24 24 22 21 19 16 16
33 32 33 35 35 35 34 33 33 32 31 29 27 23 23 24 23 21 20 19 17 17
34 34 35 35 35 35 34 33 33 32 30 29 27 23 23 23 23 21 20 20 19 21
36 36 35 35 34 32 32 31 31 30 29 27 27 27 24 23 22 21 21 19 18 20
36 35 34 33 32 32 31 32 28 27 26 26 28 27 26 23 23 22 22 21 19 17
35 33 32 32 31 31 30 28 26 26 25 26 28 27 25 21 18 18 17 15 12 12
34 32 32 31 31 30 29 27 25 24 23 23 26 25 23 19 16 16 13 11 10 11
33 32 31 31 31 30 29 26 25 23 22 23 22 25 22 18 14 12 12 11 12 14
33 32 32 31 30 28 27 26 24 22 22 20 20 22 23 20 15 13 12 11 11 11

GFSNIL_sfc_30mbdewp_171.txt.gz
Dewpoint
40 39 38 38 37 37 35 34 33 32 32 32 32 32 32 31 30 28 28 28 27 28
39 39 38 38 37 36 35 33 31 30 30 31 31 31 30 29 29 27 27 26 26 26
40 40 39 37 36 35 33 32 30 29 28 28 30 28 28 27 28 27 26 26 25 24
38 38 37 36 35 33 33 31 29 28 27 26 29 27 28 27 28 25 24 24 23 22
35 34 34 33 33 33 32 30 28 28 29 29 29 27 28 26 27 25 22 21 20 20
33 32 32 32 33 33 32 31 31 31 30 30 29 28 28 28 25 22 21 18 16 15
32 31 32 33 34 33 33 32 31 32 31 31 30 29 28 26 23 21 20 18 17 16
33 33 33 33 34 34 33 34 33 32 31 31 31 31 29 26 22 20 20 20 20 21
33 33 34 34 34 33 32 32 31 30 30 29 30 30 30 26 22 20 20 20 21 21
34 34 35 34 33 32 31 31 30 29 29 28 30 30 29 27 25 23 22 20 18 18
34 34 34 33 32 31 31 29 28 27 28 28 30 30 29 26 22 21 20 18 16 15
34 33 33 32 31 31 30 28 27 27 26 27 29 29 26 21 19 16 13 11 11 12
34 33 32 32 31 30 29 27 26 25 25 27 27 28 25 19 17 14 11 10 12 15
34 33 33 32 31 30 28 26 24 22 23 25 25 27 24 20 15 13 12 11 12 12